SCP
1 1 0 0 0 0 0 0 0 0 0 0 0 0 0 0 0 0 0 0 0 0 0 0 0 0 0 0 0 0 0 0 0 0 0 0 0 0 0 0 0 0 0 0
1 1 0 0 0 0 0 0 0 0 0 0 0 0 0 0 0 0 0 0 0 0 0 0 0 0 0 0 0 0 0 0 0 0 0 0 0 0 0 0 0 0 0 0
1 1 0 0 0 0 0 0 0 0 0 0 0 0 0 0 0 0 0 0 0 0 0 0 0 0 0 0 0 0 0 0 0 0 0 0 0 0 0 0 0 0 0 0
1 1 0 0 0 0 0 0 0 0 0 0 0 0 0 0 0 0 0 0 0 0 0 0 0 0 0 0 0 0 0 0 0 0 0 0 0 0 0 0 0 0 0 0
1 1 0 0 0 0 0 0 0 0 0 0 0 0 0 0 0 0 0 0 0 0 0 0 0 0 0 0 0 0 0 0 0 0 0 0 0 0 0 0 0 0 0 0
1 1 0 0 0 0 0 0 0 0 0 0 0 0 0 0 0 0 0 0 0 0 0 0 0 0 0 0 0 0 0 0 0 0 0 0 0 0 0 0 0 0 0 0
1 0 0 0 0 0 0 0 0 0 0 0 0 0 0 0 0 0 0 0 0 0 0 0 0 0 0 0 0 0 0 0 0 0 0 0 0 0 0 0 0 0 0 0
0 0 0 0 0 0 0 0 0 0 0 0 0 0 0 0 0 0 0 0 0 0 0 0 0 0 0 0 0 0 0 0 0 0 0 0 0 0 0 0 0 0 0 0
0 0 0 0 0 0 0 0 0 0 0 0 0 0 0 0 0 0 0 0 0 0 0 0 0 0 0 0 0 0 0 0 0 0 0 0 0 0 0 0 0 0 0 0
0 0 0 0 0 0 0 0 0 0 0 0 0 0 0 0 0 0 0 0 0 0 0 0 0 0 0 0 0 0 0 0 0 0 0 0 0 0 0 0 0 0 0 0
0 0 0 0 0 0 0 0 0 0 0 0 0 0 0 0 0 0 0 0 0 0 0 0 0 0 0 0 0 0 0 0 0 0 0 0 0 0 0 0 0 0 0 0
0 0 0 0 0 0 0 0 0 0 0 0 0 0 0 0 0 0 0 0 0 0 0 0 0 0 0 0 0 0 0 0 0 0 0 0 0 0 0 0 0 0 0 0
0 0 0 0 0 0 0 0 0 0 0 0 0 0 0 0 0 0 0 0 0 0 0 0 0 0 0 0 0 0 0 0 0 0 0 0 0 0 0 0 0 0 0 0
0 0 0 0 0 0 0 0 0 0 0 0 0 0 0 0 0 0 0 0 0 0 0 0 0 0 0 0 0 0 0 0 0 0 0 0 0 0 0 0 0 0 0 0
0 0 0 0 0 0 0 0 0 0 0 0 0 0 0 0 0 0 0 0 0 0 0 0 0 0 0 0 0 0 0 0 0 0 0 0 0 0 0 0 0 0 0 0
0 0 0 0 0 0 0 0 0 0 0 0 0 0 0 0 0 0 0 0 0 0 0 0 0 0 0 0 0 0 0 0 0 0 0 0 0 0 0 0 0 0 0 0
0 0 0 0 0 0 0 0 0 0 0 0 0 0 0 0 0 0 0 0 0 0 0 0 0 0 0 0 0 0 0 0 0 0 0 0 0 0 0 0 0 0 0 0
0 0 0 0 0 0 0 0 0 0 0 0 0 0 0 0 0 0 0 0 0 0 0 0 0 0 0 0 0 0 0 0 0 0 0 0 0 0 0 0 0 0 0 0
0 0 0 0 0 0 0 0 0 0 0 0 0 0 0 0 0 0 0 0 0 0 0 0 0 0 0 0 0 0 0 0 0 0 0 0 0 0 0 0 0 0 0 0
0 0 0 0 0 0 0 0 0 0 0 0 0 0 0 0 0 0 0 0 0 0 0 0 0 0 0 0 0 0 0 0 0 0 0 0 0 0 0 0 0 0 0 0
0 0 0 0 0 0 0 0 0 0 0 0 0 0 0 0 0 0 0 0 0 0 0 0 0 0 0 0 0 0 0 0 0 0 0 0 0 0 0 0 0 0 0 0
0 0 0 0 0 0 0 0 0 0 0 0 0 0 0 0 0 0 0 0 0 0 0 0 0 0 0 0 0 0 0 0 0 0 0 0 0 0 0 0 0 0 0 0
0 0 0 0 0 0 0 0 0 0 0 0 0 0 0 0 0 0 0 0 0 0 0 0 0 0 0 0 0 0 0 0 0 0 0 0 0 0 0 0 0 0 0 0
0 0 0 0 0 0 0 0 0 0 0 0 0 0 0 0 0 0 0 0 0 0 0 0 0 0 0 0 0 0 0 0 0 0 0 0 0 0 0 0 0 0 0 0
0 0 0 0 0 0 0 0 0 0 0 0 0 0 0 0 0 0 0 0 0 0 0 0 0 0 0 0 0 0 0 0 0 0 0 0 0 0 0 0 0 0 0 0
0 0 0 0 0 0 0 0 0 0 0 0 0 0 0 0 0 0 0 0 0 0 0 0 0 0 0 0 0 0 0 0 0 0 0 0 0 0 0 0 0 0 0 0
Wind_Speed
3 4 2 5 6 5 3 2 3 5 3 2 4 5 6 7 6 7 7 7 7 8 6 6 8 8 8 7 7 6 5 3 3 2 1 1 1 1 1 1 1 1 1 1
4 2 5 5 5 3 1 1 3 4 3 2 3 6 6 7 9 9 9 9 9 7 6 7 7 7 8 7 7 6 6 4 3 2 2 1 1 1 1 1 1 1 1 1
4 4 5 5 4 3 2 4 5 4 2 1 1 4 2 3 4 5 6 8 10 12 12 10 9 8 7 8 8 7 6 5 4 3 2 2 2 2 2 2 2 2 2 2
1 2 3 3 3 4 3 6 5 3 0 2 1 2 5 3 4 6 8 7 9 10 11 10 10 9 8 8 7 8 6 5 4 3 3 3 2 1 2 2 2 3 3 3
2 2 4 3 4 6 6 4 2 1 1 2 2 1 6 0 4 7 8 8 9 10 12 12 11 10 9 8 7 7 6 5 4 4 4 3 2 1 1 1 2 2 3 3
2 1 3 3 2 3 2 3 4 4 4 2 2 2 4 4 7 7 7 7 8 9 9 9 8 8 6 6 6 7 7 5 4 4 4 4 3 2 0 1 1 2 2 3
4 2 1 2 1 2 4 5 4 5 4 4 2 1 6 7 6 8 9 8 8 9 9 9 9 8 8 8 7 7 7 5 4 4 4 4 4 3 2 2 2 2 2 2
2 3 2 2 4 3 1 6 6 3 2 4 3 1 6 5 2 4 6 7 8 8 9 10 11 10 10 9 8 8 7 6 5 4 4 3 3 2 2 2 2 2 2 3
2 3 3 2 2 6 3 2 5 6 1 1 3 3 5 3 2 3 5 7 8 9 10 10 10 9 9 9 9 9 9 6 5 5 4 4 3 2 2 2 1 2 2 2
4 1 3 2 2 2 4 5 5 4 2 1 4 2 4 4 3 3 6 8 8 8 8 9 9 9 9 9 8 8 8 7 6 5 5 4 3 3 3 1 1 2 2 1
3 2 3 2 1 2 1 2 4 3 4 4 1 6 6 7 7 7 8 8 9 10 10 10 9 9 8 8 8 8 7 6 6 5 4 4 3 2 2 1 2 2 1 1
2 4 1 4 5 2 4 4 5 3 1 3 3 7 7 5 5 6 7 7 8 9 9 9 9 8 7 8 8 8 7 7 7 6 5 4 3 3 2 2 2 1 1 1
3 5 3 7 7 5 1 1 4 5 4 3 2 7 5 3 3 3 5 6 6 6 7 7 7 8 9 9 8 8 8 8 7 6 5 4 4 3 3 2 2 1 1 1
4 4 5 5 6 4 3 3 2 5 3 2 5 6 7 5 4 4 4 5 5 6 7 8 8 8 9 9 9 8 8 8 7 6 6 5 5 5 4 3 2 1 1 1
4 2 2 5 5 3 3 5 3 4 7 7 7 6 8 6 5 5 4 3 4 5 6 8 9 9 8 8 8 8 8 7 7 7 7 7 6 5 4 3 2 2 1 1
3 1 2 4 4 3 4 5 4 4 4 5 4 5 6 4 1 0 2 3 4 6 7 8 8 8 9 10 9 8 8 8 8 8 8 6 5 5 4 4 3 2 1 1
1 2 2 4 6 4 4 4 3 2 2 3 4 6 4 1 1 2 2 2 4 5 6 7 8 9 10 10 10 10 10 8 8 8 7 7 6 6 5 4 3 3 2 2
3 2 2 1 3 2 7 4 1 2 2 2 1 3 2 3 2 1 1 3 3 3 4 5 6 7 8 8 8 8 7 8 8 8 8 7 7 7 5 4 4 4 3 2
6 5 3 2 1 5 7 5 2 1 3 5 2 3 3 2 4 5 3 2 4 4 4 5 6 6 6 7 7 7 8 8 8 8 8 9 8 7 6 6 5 4 3 2
4 5 4 3 2 4 6 8 4 4 2 6 3 3 4 5 4 5 6 4 3 3 2 2 3 3 5 6 6 8 8 8 10 10 10 9 9 8 8 7 6 4 3 3
3 2 2 3 3 6 6 6 4 4 4 5 2 2 3 1 3 5 5 4 4 2 2 1 2 3 5 5 6 8 8 10 11 9 8 8 8 9 8 6 4 4 4 3
2 1 1 2 2 5 6 4 2 4 3 2 2 2 2 2 3 4 4 4 4 4 3 1 1 3 3 4 6 7 9 9 7 7 7 8 8 8 7 6 5 4 4 4
1 3 4 5 6 4 2 0 1 1 1 2 2 3 2 3 3 4 4 4 4 4 4 3 2 3 3 4 6 8 8 6 6 7 7 7 7 6 6 7 6 4 4 4
4 1 1 2 3 4 3 3 3 2 2 2 2 2 3 3 4 4 4 5 5 5 4 3 2 3 4 4 5 6 5 5 7 8 7 6 6 5 5 5 6 5 5 5
4 2 2 3 5 4 4 4 3 4 3 4 4 3 3 3 4 4 4 5 5 5 4 3 3 4 5 4 5 4 4 6 6 7 6 6 6 6 5 4 4 6 6 7
5 5 4 6 6 4 6 5 3 3 3 3 4 4 4 3 4 5 5 5 5 5 5 5 5 5 5 4 5 4 5 6 6 5 5 5 5 4 5 4 2 2 4 6
Wind_Direction
111 91 163 190 175 169 184 189 238 253 227 192 227 249 242 222 206 198 193 194 188 190 181 161 151 145 138 137 137 139 137 143 123 99 92 78 24 332 336 318 327 341 346 2
77 180 211 182 164 152 174 216 251 277 242 200 250 257 245 210 207 196 191 191 190 179 166 162 155 151 150 151 150 146 148 155 149 145 163 176 183 249 268 304 326 313 323 333
158 210 182 165 174 184 235 219 226 236 307 273 257 311 269 237 214 203 198 190 185 180 175 170 163 162 156 156 159 156 160 159 154 141 107 64 45 20 359 333 319 302 297 304
187 224 162 165 186 168 234 238 228 232 74 297 161 276 285 230 196 202 203 191 185 182 174 169 166 166 167 167 159 154 160 158 155 141 124 124 132 197 249 257 278 297 302 302
235 175 154 184 204 180 216 226 206 209 122 350 345 139 292 235 203 216 210 197 187 179 173 172 174 174 171 166 158 155 154 157 158 148 145 141 153 217 260 286 309 312 307 304
246 193 160 195 220 196 155 58 33 42 65 351 267 150 271 236 213 205 205 195 182 173 171 171 171 163 163 160 154 153 152 161 164 154 153 156 170 194 236 300 309 309 305 308
351 345 217 166 82 18 80 82 37 13 15 273 275 151 250 253 226 193 187 186 177 169 166 165 164 167 168 166 163 160 157 167 175 166 170 176 186 186 201 231 245 271 289 293
50 310 246 192 165 161 150 129 144 166 237 293 345 262 269 285 235 168 167 167 166 172 174 175 176 175 176 174 169 165 167 173 179 176 184 189 192 188 212 225 227 243 250 262
153 275 285 227 175 139 126 154 162 133 123 349 321 309 318 360 59 136 154 160 175 182 183 181 180 180 179 177 178 176 174 177 183 182 179 187 194 193 214 235 239 253 262 277
149 239 301 285 47 33 146 148 96 101 114 11 327 286 243 242 225 196 183 186 193 190 187 184 183 184 183 183 182 178 177 181 185 182 183 185 195 202 211 213 254 272 284 307
105 110 329 7 190 214 101 89 102 111 145 140 263 276 239 216 214 205 207 201 194 193 192 189 189 187 183 179 178 180 183 181 181 184 186 180 194 203 194 202 241 257 268 281
87 109 334 283 275 221 168 162 138 133 223 152 163 269 279 237 225 207 214 212 203 197 193 188 183 179 179 183 184 186 186 184 186 183 177 182 186 185 190 221 247 248 250 263
94 93 50 350 343 350 339 189 146 134 119 140 157 269 297 313 269 232 218 215 207 196 189 184 179 182 187 189 189 191 189 188 184 176 172 177 183 188 204 226 240 237 233 258
102 106 151 190 233 258 284 281 177 126 143 202 216 248 290 292 277 268 242 215 200 194 189 187 190 194 194 193 191 191 193 188 179 174 174 181 192 197 205 215 219 221 201 177
88 121 230 243 257 250 254 264 252 203 192 194 231 236 258 255 239 241 232 203 189 199 199 197 198 199 197 194 194 193 193 189 180 175 182 194 198 196 196 200 205 209 194 181
52 103 357 324 315 318 297 284 267 246 219 216 238 267 265 257 245 265 215 189 197 210 212 207 203 199 198 197 194 192 193 190 180 182 192 193 188 189 192 195 197 197 207 201
4 106 61 297 310 356 305 269 242 250 261 196 219 250 274 313 183 191 195 189 208 219 213 206 204 204 204 202 194 193 194 184 182 189 192 189 186 189 197 195 189 201 213 202
177 125 134 274 5 272 257 278 182 125 6 348 265 276 273 224 207 187 184 195 226 230 216 214 211 209 207 200 194 192 182 178 185 191 194 192 188 192 194 190 197 208 204 200
171 151 135 124 243 287 304 314 310 129 6 349 2 355 353 8 42 0 337 279 233 229 218 213 209 205 198 194 189 178 181 183 187 194 196 195 190 189 189 195 203 202 193 201
98 110 124 134 168 242 272 302 312 91 9 333 7 21 12 46 43 300 310 313 298 288 253 232 206 182 190 198 178 174 186 187 198 202 200 195 189 189 193 199 199 192 186 196
34 59 139 177 211 258 281 309 31 82 261 303 360 28 39 99 223 266 309 330 325 306 289 285 187 191 205 192 173 183 190 201 206 200 193 190 192 193 194 192 187 180 178 176
190 154 195 146 184 258 316 21 79 224 255 310 357 6 10 321 314 325 337 341 341 336 318 308 231 233 218 183 177 191 206 210 195 185 188 193 195 195 187 176 179 174 169 169
191 188 195 189 211 240 321 332 277 215 285 317 332 337 352 347 331 326 323 326 327 326 316 300 249 246 243 203 188 201 215 198 180 180 190 194 192 191 180 176 178 173 171 173
297 5 95 312 288 306 326 358 353 355 346 332 341 351 1 342 327 326 323 321 322 321 317 311 291 259 253 235 216 214 207 187 181 188 193 187 183 185 183 180 179 177 181 183
264 333 342 282 282 314 334 336 333 344 350 347 339 336 341 339 325 319 316 312 308 308 306 303 274 257 253 241 231 220 190 176 186 193 193 188 184 178 178 181 189 188 197 194
223 213 218 245 248 236 269 283 308 336 335 327 330 329 327 324 311 312 306 301 301 302 304 305 292 275 266 249 236 222 197 181 181 189 192 188 181 179 174 168 172 210 201 196